Flag for Germany Weather past 2 weeks in Freital, Saxony, Germany

Now
59 °F

Light rain. Low clouds.


Feels Like: 58 °F
Forecast: 56 / 66 °F
Wind: 7 mph from Southwest

Location: Dresden-Klotzsche

Current Time: Jul 28, 2015 at 6:15:54 AM

Latest Report: Jul 28, 2015 at 4:00 AM


Visibility: 16 mi

Pressure: 29.69 "Hg

Humidity: 84%

Dew point: 54 °F

Location of FreitalLocation

Historic Weather in Freital — Graph

°F

Freital temperature yesterday

Maximum temperature yesterday: 69 °F (at 3:00 PM)
Minimum temperature yesterday: 57 °F (at 3:00 AM)
Average temperature yesterday: 62 °F

Past Weeks' High & Low Weather Summary

 TemperatureHumidityPressure
High92 °F (Jul 17, 6:00 PM)99% (Jul 23, 3:00 AM)30.11 "Hg (Jul 23, 3:00 AM)
Low57 °F (Jul 27, 3:00 AM)22% (Jul 17, 6:00 PM)29.59 "Hg (Jul 27, 3:00 PM)
Average70 °F66%29.91 "Hg
* Reported Jul 13 4:00 AM — Jul 28 4:00 AM, Freital, Weather by CustomWeather, © 2015

Note: Actual official high and low records may vary slightly from our data, if they occured in-between our weather recording intervals... More about our weather records

Advertising

Freital weather history for previous 24 hours

 ConditionsComfort  
Time TempWeatherWind HumidityBarometerVisibility
4:00 AM
Tue, Jul 28
59 °FLight rain. Low clouds.7 mph84%29.69 "Hg16 mi
3:00 AM62 °FSprinkles. Overcast.7 mph75%29.69 "Hg19 mi
2:00 AM60 °FPassing clouds.6 mph78%29.69 "Hg28 mi
1:00 AM61 °FPassing clouds.7 mph77%29.69 "Hg28 mi
10:00 PM
Mon, Jul 27
61 °FOvercast.5 mph86%29.68 "Hg28 mi
9:00 PM63 °FOvercast.5 mph85%29.67 "Hg16 mi
8:00 PM62 °FPartly sunny.3 mph90%29.65 "Hg31 mi
7:00 PM63 °FThunderstorms. Overcast.3 mph81%29.65 "Hg25 mi
6:00 PM65 °FThunderstorms. Partly sunny.6 mph78%29.63 "Hg37 mi
5:00 PM62 °FOvercast.1 mph85%29.62 "Hg25 mi
4:00 PM61 °FLight rain. Overcast.7 mph87%29.64 "Hg19 mi
3:00 PM69 °FThunderstorms. Partly sunny.6 mph61%29.59 "Hg34 mi
2:00 PM63 °FThundershowers. Overcast.6 mph84%29.62 "Hg19 mi
1:00 PM68 °FSprinkles. Overcast.7 mph62%29.62 "Hg31 mi
12:00 PM69 °FPartly sunny.7 mph55%29.62 "Hg34 mi
10:00 AM65 °FOvercast.6 mph54%29.65 "Hg37 mi
9:00 AM64 °FOvercast.6 mph58%29.64 "Hg34 mi
8:00 AM60 °FOvercast.3 mph65%29.65 "Hg34 mi
7:00 AM58 °FOvercast.5 mph67%29.66 "Hg34 mi
Weather by CustomWeather, © 2015

See weather overviewHow to use our weather pages